Durango, CO

11:57 PM MDT on April 28, 2017 (GMT -0600)
Durango-La Plata County

Weather History for KDRO - August, 2014

Change the Weather History Date:

Friday, August 8, 2014

  Actual Average Record
Temperature  
Mean Temperature 68 °F 69 °F  
Max Temperature 85 °F 84 °F 92 °F (1983)
Min Temperature 50 °F 53 °F 43 °F (2011)
Degree Days  
Heating Degree Days 0 0  
Month to date heating degree days 0 0  
Since 1 June heating degree days 88 125  
Since 1 July heating degree days 0 10  
Cooling Degree Days 3 4  
Month to date cooling degree days 25 33  
Year to date cooling degree days 249 184  
Since 1 June cooling degree days 244 183  
Growing Degree Days 18 (Base 50)    
Moisture  
Dew Point 37 °F    
Average Humidity 44    
Maximum Humidity 77    
Minimum Humidity 11    
Precipitation  
Precipitation 0.00 in 0.07 in 0.17 in (1976)
Month to date precipitation 0.93 0.66  
Year to date precipitation 4.63 8.45  
Sea Level Pressure  
Sea Level Pressure 29.96 in    
Wind  
Wind Speed 6 mph (NNW)    
Max Wind Speed 18 mph    
Max Gust Speed 26 mph    
Visibility 10 miles    
Events      
T = Trace of Precipitation, MM = Missing Value Source: NWS Daily Summary

Daily Weather History Graph

Daily Weather History Graph

Search for Another Location

Airport or City:

Trip Planner

Search our weather history database for the weather conditions in past years. The results will help you decide how hot, cold, wet, or windy it might be!

Date:

Astronomy

Aug. 08, 2014 Rise Set
Actual Time 6:21 AM MDT 8:10 PM MDT
Civil Twilight 5:53 AM MDT 8:39 PM MDT
Nautical Twilight 5:19 AM MDT 9:13 PM MDT
Astronomical Twilight 4:42 AM MDT 9:49 PM MDT
Moon 6:24 PM MDT (8/8) 3:58 AM MDT (8/8)
Length of Visible Light 14h 45m
Length of Day
13h 49m
Waxing Gibbous, 94% of the Moon is Illuminated
Aug 8
Waxing Gibbous
Aug 10
Full
Aug 17
Last Quarter
Aug 25
New
Sep 2
First Quarter

Hourly Weather History & Observations

Time (MDT) Temp. Dew Point Humidity Pressure Visibility Wind Dir Wind Speed Gust Speed Precip Events Conditions
12:53 AM 59.0 °F 46.0 °F 62% 29.96 in 10.0 mi NE 5.8 mph - N/A   Clear
1:53 AM 57.9 °F 46.9 °F 67% 29.97 in 10.0 mi North 6.9 mph - N/A   Clear
2:53 AM 55.0 °F 45.0 °F 69% 29.96 in 10.0 mi North 5.8 mph - N/A   Clear
3:53 AM 53.1 °F 45.0 °F 74% 29.97 in 10.0 mi NNW 3.5 mph - N/A   Clear
4:53 AM 52.0 °F 45.0 °F 77% 29.97 in 10.0 mi NNW 4.6 mph - N/A   Clear
5:53 AM 51.1 °F 44.1 °F 77% 29.98 in 10.0 mi Calm Calm - N/A   Clear
6:53 AM 52.0 °F 44.1 °F 74% 30.00 in 10.0 mi North 4.6 mph - N/A   Clear
7:53 AM 55.9 °F 45.0 °F 67% 30.00 in 10.0 mi Calm Calm - N/A   Clear
8:53 AM 64.0 °F 45.0 °F 50% 29.99 in 10.0 mi Calm Calm - N/A   Clear
9:53 AM 70.0 °F 46.0 °F 42% 30.00 in 10.0 mi ENE 3.5 mph - N/A   Clear
10:53 AM 73.9 °F 46.0 °F 37% 30.00 in 10.0 mi Variable 3.5 mph - N/A   Clear
11:53 AM 77.0 °F 37.9 °F 24% 29.99 in 10.0 mi Variable 4.6 mph - N/A   Clear
12:53 PM 80.1 °F 35.1 °F 20% 29.96 in 10.0 mi WSW 8.1 mph - N/A   Clear
1:53 PM 82.9 °F 32.0 °F 16% 29.94 in 10.0 mi NNW 12.7 mph 19.6 mph N/A   Clear
2:53 PM 82.0 °F 28.0 °F 14% 29.94 in 10.0 mi WNW 13.8 mph 25.3 mph N/A   Scattered Clouds
3:53 PM 82.0 °F 27.0 °F 13% 29.93 in 10.0 mi West 11.5 mph - N/A   Clear
4:53 PM 84.9 °F 25.0 °F 11% 29.91 in 10.0 mi WSW 6.9 mph - N/A   Clear
5:53 PM 82.0 °F 28.0 °F 14% 29.91 in 10.0 mi WNW 15.0 mph 21.9 mph N/A   Clear
6:53 PM 81.0 °F 26.1 °F 13% 29.91 in 10.0 mi WNW 10.4 mph - N/A   Clear
7:53 PM 77.0 °F 25.0 °F 15% 29.92 in 10.0 mi WNW 10.4 mph - N/A   Clear
8:53 PM 73.0 °F 23.0 °F 15% 29.91 in 10.0 mi WNW 8.1 mph - N/A   Clear
9:53 PM 66.0 °F 27.0 °F 23% 29.95 in 10.0 mi East 3.5 mph - N/A   Clear
10:53 PM 61.0 °F 34.0 °F 36% 29.96 in 10.0 mi NNE 4.6 mph - N/A   Clear
11:53 PM 60.1 °F 35.1 °F 39% 29.96 in 10.0 mi North 5.8 mph - N/A   Clear